User: anonymous   Login
Location: Caltech
(34.1382°N, 118.1253°W)
Time: 23:56:39
(UTC-07:00)
Language:

Cosmos 2237 Rocket - Orbit

View from above orbital plane
View from above orbital plane
View from above satellite
View from above satellite

Ground track
Ground track

The orbit data is extracted from the following two-line orbital elements,

1 22566U 93016B   15085.21038818  .00000011  00000-0  30191-4 0  9990
2 22566 071.0102 335.4333 0012596 288.2802 071.6950 14.14896391136139
Epoch (UTC): 26 March 2015 05:02:57
Eccentricity: 0.0012596
inclination: 71.0102°
perigee height: 833 km
apogee height: 852 km
right ascension of ascending node: 335.4333°
argument of perigee: 288.2802°
revolutions per day: 14.14896391
mean anomaly at epoch: 71.6950°
orbit number at epoch: 13613

The dashed part of the orbit path shows where the satellite is in the earth's shadow,  

DLR